User: anonymous   Login
Location: Drayton Valley
(53.2170°N, 114.9830°W)
Time: 05:58:05
(UTC-06:00)
Language:

Cosmos 1302 Rocket - Orbit

View from above orbital plane
View from above orbital plane
View from above satellite
View from above satellite

Ground track
Ground track

The orbit data is extracted from the following two-line orbital elements,

1 12792U 81084B   15181.50877693  .00000045  00000-0  23756-4 0  9999
2 12792 074.0307 276.4032 0013594 011.6736 062.0383 14.37322770771940
Epoch (UTC): 30 June 2015 12:12:38
Eccentricity: 0.0013594
inclination: 74.0307°
perigee height: 757 km
apogee height: 777 km
right ascension of ascending node: 276.4032°
argument of perigee: 11.6736°
revolutions per day: 14.37322770
mean anomaly at epoch: 62.0383°
orbit number at epoch: 77194

The dashed part of the orbit path shows where the satellite is in the earth's shadow,  

DLR